SWR248Z LSZH-LIRN

Flight info

Callsign SWR248Z
Flight time N/A
Altitude 35000
Route VEBIT T53 GERSA N850 SOSON DCT ODINA DCT LOMED DCT EVULI DCT ERIKA
Aircraft A321/M-SDE3FGHIRWY/LB1

Departure

Time 2026-05-01 15:17
Airport Zürich Airport (LSZH)

Arrival

Time N/A
Airport Naples International Airport (LIRN)
Time Latitude Longitude Altitude Speed Heading
2026-05-01 14:53 47.45430 8.55804 1411 ft 0 kts 186°
2026-05-01 15:08 47.45448 8.55808 1408 ft 4 kts 192°
2026-05-01 15:08 47.45473 8.55813 1412 ft 4 kts 162°
2026-05-01 15:09 47.45493 8.55800 1411 ft 4 kts 137°
2026-05-01 15:09 47.45507 8.55768 1413 ft 4 kts 100°
2026-05-01 15:09 47.45508 8.55758 1413 ft 0 kts 96°
2026-05-01 15:13 47.45493 8.55966 1411 ft 13 kts 96°
2026-05-01 15:14 47.45488 8.56223 1408 ft 14 kts 60°
2026-05-01 15:14 47.45547 8.56338 1415 ft 12 kts 49°
2026-05-01 15:14 47.45592 8.56527 1418 ft 18 kts 96°
2026-05-01 15:15 47.45565 8.56902 1420 ft 13 kts 94°
2026-05-01 15:15 47.45628 8.57005 1424 ft 4 kts 349°
2026-05-01 15:16 47.45684 8.56710 1420 ft 57 kts 276°
2026-05-01 15:16 47.45881 8.54078 1587 ft 175 kts 278°
2026-05-01 15:17 47.46097 8.50467 2989 ft 188 kts 276°
2026-05-01 15:18 47.44800 8.44595 3519 ft 248 kts 214°
2026-05-01 15:18 47.43259 8.43382 4031 ft 255 kts 195°
2026-05-01 15:19 47.37669 8.43656 6037 ft 275 kts 175°
2026-05-01 15:19 47.33833 8.44091 7600 ft 277 kts 176°
2026-05-01 15:19 47.31900 8.44308 8324 ft 280 kts 175°
2026-05-01 15:20 47.27992 8.44746 9809 ft 284 kts 175°
2026-05-01 15:20 47.26014 8.44991 10467 ft 287 kts 172°
2026-05-01 15:20 47.24082 8.45753 11087 ft 290 kts 157°
2026-05-01 15:21 47.22234 8.47081 11423 ft 305 kts 153°
2026-05-01 15:21 47.20276 8.48540 11558 ft 326 kts 153°
2026-05-01 15:21 47.18182 8.50089 11671 ft 347 kts 155°
2026-05-01 15:21 47.15855 8.51287 11932 ft 361 kts 166°
2026-05-01 15:22 47.10807 8.52203 13082 ft 369 kts 174°
2026-05-01 15:22 47.08238 8.52574 13687 ft 373 kts 173°
2026-05-01 15:22 47.05642 8.52954 14276 ft 376 kts 173°
2026-05-01 15:23 47.03063 8.53333 14764 ft 380 kts 173°
2026-05-01 15:23 47.00411 8.53724 15256 ft 384 kts 173°
2026-05-01 15:23 46.97737 8.54110 15736 ft 388 kts 173°
2026-05-01 15:23 46.95031 8.54498 16235 ft 392 kts 173°
2026-05-01 15:24 46.92309 8.54887 16742 ft 395 kts 173°
2026-05-01 15:24 46.89559 8.55282 17246 ft 399 kts 173°
2026-05-01 15:24 46.86785 8.55680 17722 ft 402 kts 173°
2026-05-01 15:24 46.83986 8.56080 18176 ft 406 kts 173°
2026-05-01 15:25 46.81161 8.56481 18643 ft 410 kts 173°
2026-05-01 15:25 46.78313 8.56887 19059 ft 413 kts 173°
2026-05-01 15:25 46.75847 8.57240 19386 ft 416 kts 173°
2026-05-01 15:27 46.73988 8.57507 19602 ft 419 kts 173°
2026-05-01 15:27 46.71075 8.57930 20040 ft 421 kts 173°
2026-05-01 15:28 46.65247 8.58776 20855 ft 427 kts 173°
2026-05-01 15:28 46.62284 8.59197 21260 ft 429 kts 173°
2026-05-01 15:28 46.59302 8.59614 21667 ft 432 kts 173°
2026-05-01 15:29 46.54765 8.60250 22260 ft 436 kts 173°
2026-05-01 15:29 46.51912 8.60653 22619 ft 438 kts 173°
2026-05-01 15:29 46.45799 8.61519 23365 ft 444 kts 173°
2026-05-01 15:30 46.39614 8.62397 24081 ft 449 kts 174°
2026-05-01 15:31 46.27064 8.64170 25389 ft 457 kts 174°
2026-05-01 15:31 46.20704 8.65055 26006 ft 461 kts 174°
2026-05-01 15:32 46.14298 8.66141 26573 ft 465 kts 167°
2026-05-01 15:32 46.08284 8.69498 27121 ft 466 kts 148°
2026-05-01 15:33 46.00577 8.78134 27907 ft 472 kts 139°
2026-05-01 15:34 45.92923 8.87102 28780 ft 476 kts 139°